GW0326 Weather Reports


Display with metric or nautical units.
time (UTC)temp
F
wind
direction
speed
MPH
gust
MPH
rain 1hr
in
rain 24hr
in
rain mn
in
humidity
%
barometer
mb
20260903222044 77 67 0.0 4.0 0.00 0.00 0.00 25 1021.8
20260903221556 77 0 0.0 4.0 0.00 0.00 0.00 25 1022.0
20260903221044 78 0 0.0 6.0 0.00 0.00 0.00 25 1022.0
20260903220544 77 0 0.0 6.0 0.00 0.00 0.00 25 1021.9
20260903220106 77 54 0.0 7.0 0.00 0.00 0.00 25 1022.0
20260903215545 78 0 0.0 7.0 0.00 0.00 0.00 24 1022.1
20260903215045 79 74 1.0 7.0 0.00 0.00 0.00 24 1022.0
20260903214553 78 0 0.0 6.0 0.00 0.00 0.00 24 1022.0
20260903214044 78 0 0.0 9.0 0.00 0.00 0.00 25 1022.1
20260903213544 78 142 0.0 9.0 0.00 0.00 0.00 24 1022.1
20260903213101 79 63 1.0 11.0 0.00 0.00 0.00 24 1022.0
20260903212544 79 0 1.0 12.0 0.00 0.00 0.00 24 1022.0
20260903212044 79 43 3.0 12.0 0.00 0.00 0.00 23 1022.1
20260903211617 80 0 0.0 6.0 0.00 0.00 0.00 23 1022.0
20260903211048 79 136 0.0 9.0 0.00 0.00 0.00 24 1022.1
20260903210544 79 0 4.0 10.0 0.00 0.00 0.00 23 1022.2
20260903210059 80 40 1.0 10.0 0.00 0.00 0.00 23 1022.2
20260903205544 79 0 1.0 10.0 0.00 0.00 0.00 24 1022.2
20260903205044 80 59 2.0 10.0 0.00 0.00 0.00 23 1022.2
20260903204603 80 0 1.0 9.0 0.00 0.00 0.00 23 1022.2
20260903204043 80 0 1.0 9.0 0.00 0.00 0.00 24 1022.3
20260903203544 79 58 0.0 9.0 0.00 0.00 0.00 24 1022.3
20260903203100 79 55 1.0 8.0 0.00 0.00 0.00 25 1022.3
20260903202544 79 59 0.0 8.0 0.00 0.00 0.00 24 1022.4
20260903202046 78 78 2.0 14.0 0.00 0.00 0.00 26 1022.3
20260903201553 78 0 1.0 14.0 0.00 0.00 0.00 25 1022.3
20260903201129 78 44 2.0 14.0 0.00 0.00 0.00 25 1022.4
20260903200544 78 0 2.0 9.0 0.00 0.00 0.00 26 1022.4
20260903200101 77 121 1.0 11.0 0.00 0.00 0.00 26 1022.6
20260903195543 77 0 2.0 11.0 0.00 0.00 0.00 26 1022.5
20260903195045 77 126 1.0 14.0 0.00 0.00 0.00 26 1022.7
20260903194559 77 53 3.0 14.0 0.00 0.00 0.00 26 1022.6
20260903194048 78 57 2.0 13.0 0.00 0.00 0.00 26 1022.6
20260903193543 78 67 1.0 13.0 0.00 0.00 0.00 26 1022.7
20260903193055 78 84 2.0 13.0 0.00 0.00 0.00 26 1022.8
20260903192545 78 0 0.0 8.0 0.00 0.00 0.00 25 1022.8
20260903192043 79 0 2.0 8.0 0.00 0.00 0.00 25 1022.8
20260903191600 79 105 0.0 9.0 0.00 0.00 0.00 25 1022.8
20260903191044 78 59 2.0 9.0 0.00 0.00 0.00 26 1022.8
20260903190545 78 0 0.0 10.0 0.00 0.00 0.00 26 1022.8
20260903190059 78 95 0.0 11.0 0.00 0.00 0.00 26 1022.8
20260903185543 77 40 4.0 11.0 0.00 0.00 0.00 26 1022.9
20260903185043 78 132 0.0 5.0 0.00 0.00 0.00 26 1023.0
20260903184602 77 168 0.0 9.0 0.00 0.00 0.00 27 1022.9
20260903184044 78 0 1.0 9.0 0.00 0.00 0.00 26 1023.1
20260903183544 78 0 0.0 8.0 0.00 0.00 0.00 26 1023.0
20260903183055 78 138 0.0 6.0 0.00 0.00 0.00 26 1023.1
20260903182544 78 0 0.0 9.0 0.00 0.00 0.00 27 1023.2
20260903182045 77 133 1.0 9.0 0.00 0.00 0.00 27 1023.2
20260903181558 77 0 2.0 9.0 0.00 0.00 0.00 27 1023.2
20260903181044 77 66 0.0 3.0 0.00 0.00 0.00 26 1023.2
20260903180544 78 0 0.0 4.0 0.00 0.00 0.00 26 1023.4
20260903180108 77 150 0.0 6.0 0.00 0.00 0.00 27 1023.3
20260903175543 77 0 0.0 6.0 0.00 0.00 0.00 28 1023.4
20260903175043 77 0 0.0 3.0 0.00 0.00 0.00 27 1023.4
20260903174611 76 0 0.0 3.0 0.00 0.00 0.00 28 1023.5
20260903174044 76 0 0.0 3.0 0.00 0.00 0.00 28 1023.5
20260903173544 75 0 0.0 4.0 0.00 0.00 0.00 28 1023.5
20260903173059 76 0 0.0 4.0 0.00 0.00 0.00 28 1023.6
20260903172545 76 0 0.0 6.0 0.00 0.00 0.00 27 1023.7
20260903172048 75 0 1.0 7.0 0.00 0.00 0.00 28 1023.6
20260903171603 75 0 1.0 7.0 0.00 0.00 0.00 28 1023.7
20260903171046 74 0 0.0 0.0 0.00 0.00 0.00 29 1023.7
20260903170618 75 0 0.0 1.0 0.00 0.00 0.00 29 1023.7
20260903170110 75 0 0.0 2.0 0.00 0.00 0.00 29 1023.6
20260903165543 74 0 0.0 5.0 0.00 0.00 0.00 30 1023.6
20260903165047 74 0 0.0 5.0 0.00 0.00 0.00 31 1023.6
20260903164556 73 99 0.0 5.0 0.00 0.00 0.00 30 1023.6
20260903164043 73 0 0.0 4.0 0.00 0.00 0.00 30 1023.6
20260903163544 73 0 0.0 7.0 0.00 0.00 0.00 30 1023.7
20260903163114 73 233 0.0 8.0 0.00 0.00 0.00 30 1023.7
20260903162547 73 217 0.0 9.0 0.00 0.00 0.00 31 1023.7
20260903162043 72 0 0.0 9.0 0.00 0.00 0.00 30 1023.7
20260903161559 72 254 2.0 9.0 0.00 0.00 0.00 31 1023.6
20260903161043 71 206 0.0 8.0 0.00 0.00 0.00 32 1023.7
20260903160546 71 0 0.0 8.0 0.00 0.00 0.00 32 1023.7
20260903155543 71 0 0.0 6.0 0.00 0.00 0.00 34 1023.7
20260903155045 70 0 0.0 6.0 0.00 0.00 0.00 34 1023.7
20260903154603 70 0 0.0 6.0 0.00 0.00 0.00 36 1023.7
20260903154043 69 0 0.0 4.0 0.00 0.00 0.00 35 1023.6
20260903153544 69 0 0.0 5.0 0.00 0.00 0.00 36 1023.7
20260903153104 69 0 0.0 5.0 0.00 0.00 0.00 36 1023.7
20260903152543 69 0 1.0 5.0 0.00 0.00 0.00 36 1023.7
20260903152046 69 0 0.0 6.0 0.00 0.00 0.00 37 1023.6
20260903151559 69 311 1.0 8.0 0.00 0.00 0.00 38 1023.7
20260903151046 68 294 2.0 12.0 0.00 0.00 0.00 38 1023.6
20260903150546 68 262 0.0 12.0 0.00 0.00 0.00 39 1023.7
20260903150112 68 0 2.0 12.0 0.00 0.00 0.00 39 1023.7
20260903145543 67 291 1.0 8.0 0.00 0.00 0.00 40 1023.8
20260903145045 67 0 0.0 7.0 0.00 0.00 0.00 41 1023.8
20260903144604 67 216 1.0 8.0 0.00 0.00 0.00 42 1023.8
20260903144044 66 339 2.0 8.0 0.00 0.00 0.00 43 1023.8
20260903143546 66 217 0.0 10.0 0.00 0.00 0.00 44 1023.8
20260903143105 65 201 2.0 10.0 0.00 0.00 0.00 44 1023.7
20260903142545 65 176 0.0 3.0 0.00 0.00 0.00 45 1023.8
20260903142046 64 0 0.0 1.0 0.00 0.00 0.00 48 1023.8
20260903141604 64 0 0.0 1.0 0.00 0.00 0.00 47 1023.8
20260903141045 64 0 0.0 2.0 0.00 0.00 0.00 47 1023.8
20260903140546 63 0 0.0 2.0 0.00 0.00 0.00 48 1023.7
20260903140103 63 0 0.0 2.0 0.00 0.00 0.00 48 1023.7
20260903135546 62 0 0.0 1.0 0.00 0.00 0.00 49 1023.7
20260903135046 61 0 0.0 0.0 0.00 0.00 0.00 51 1023.7
20260903134559 60 0 0.0 0.0 0.00 0.00 0.00 52 1023.7
20260903134045 59 0 0.0 0.0 0.00 0.00 0.00 55 1023.6
20260903133545 58 0 0.0 0.0 0.00 0.00 0.00 56 1023.6
20260903133057 57 0 0.0 1.0 0.00 0.00 0.00 57 1023.4
20260903132547 57 0 0.0 3.0 0.00 0.00 0.00 58 1023.4
20260903132043 56 0 0.0 3.0 0.00 0.00 0.00 58 1023.4
20260903131605 56 0 0.0 1.0 0.00 0.00 0.00 58 1023.5
20260903131049 55 0 0.0 0.0 0.00 0.00 0.00 59 1023.5
20260903130548 55 0 0.0 1.0 0.00 0.00 0.00 60 1023.4
20260903130116 55 0 0.0 1.0 0.00 0.00 0.00 60 1023.3
20260903125546 54 0 0.0 0.0 0.00 0.00 0.00 61 1023.4
20260903125049 54 0 0.0 0.0 0.00 0.00 0.00 61 1023.2
20260903124602 53 0 0.0 0.0 0.00 0.00 0.00 61 1023.1
20260903124045 53 0 0.0 0.0 0.00 0.00 0.00 62 1023.1
20260903123545 52 0 0.0 0.0 0.00 0.00 0.00 63 1023.0
20260903123057 52 0 0.0 0.0 0.00 0.00 0.00 64 1023.0
20260903122547 52 0 0.0 0.0 0.00 0.00 0.00 64 1022.9
20260903122046 52 0 0.0 0.0 0.00 0.00 0.00 65 1022.9
20260903121604 52 0 0.0 0.0 0.00 0.00 0.00 65 1022.9
20260903121044 51 0 0.0 0.0 0.00 0.00 0.00 67 1022.9
20260903120544 51 0 0.0 0.0 0.00 0.00 0.00 67 1022.9
20260903120056 51 0 0.0 0.0 0.00 0.00 0.00 68 1022.9
20260903115549 51 0 0.0 0.0 0.00 0.00 0.00 68 1022.8
20260903115046 51 0 0.0 0.0 0.00 0.00 0.00 69 1022.8
20260903114557 51 0 0.0 0.0 0.00 0.00 0.00 69 1022.7
20260903114045 51 0 0.0 0.0 0.00 0.00 0.00 69 1022.7
20260903113543 51 0 0.0 0.0 0.00 0.00 0.00 69 1022.7
20260903113103 51 0 0.0 0.0 0.00 0.00 0.00 68 1022.7
20260903112548 51 0 0.0 0.0 0.00 0.00 0.00 68 1022.7
20260903112044 52 0 0.0 0.0 0.00 0.00 0.00 68 1022.7
20260903111625 52 0 0.0 0.0 0.00 0.00 0.00 67 1022.7
20260903111044 52 0 0.0 0.0 0.00 0.00 0.00 67 1022.8
20260903110546 52 0 0.0 0.0 0.00 0.00 0.00 66 1022.8
20260903110110 53 0 0.0 0.0 0.00 0.00 0.00 66 1022.8
20260903105545 53 0 0.0 0.0 0.00 0.00 0.00 65 1022.8
20260903105045 53 0 0.0 0.0 0.00 0.00 0.00 64 1022.9
20260903104629 54 0 0.0 0.0 0.00 0.00 0.00 64 1022.9
20260903104045 54 0 0.0 0.0 0.00 0.00 0.00 63 1022.9
20260903103545 55 0 0.0 0.0 0.00 0.00 0.00 62 1022.8
20260903103054 55 0 0.0 0.0 0.00 0.00 0.00 62 1022.8
20260903102543 55 0 0.0 0.0 0.00 0.00 0.00 62 1022.8
20260903102044 55 0 0.0 0.0 0.00 0.00 0.00 61 1022.8
20260903101600 55 0 0.0 0.0 0.00 0.00 0.00 61 1022.7
20260903101049 56 0 0.0 0.0 0.00 0.00 0.00 60 1022.8
20260903100549 56 0 0.0 0.0 0.00 0.00 0.00 60 1022.9
20260903100059 57 0 0.0 0.0 0.00 0.00 0.00 59 1022.9
20260903095545 57 0 0.0 0.0 0.00 0.00 0.00 58 1022.9
20260903095045 57 0 0.0 0.0 0.00 0.00 0.00 58 1022.9
20260903094605 57 0 0.0 0.0 0.00 0.00 0.00 57 1022.9
20260903094045 57 0 0.0 0.0 0.00 0.00 0.00 57 1022.9
20260903093549 57 0 0.0 0.0 0.00 0.00 0.00 56 1022.9
20260903093104 57 0 0.0 0.0 0.00 0.00 0.00 56 1023.0
20260903092543 57 0 0.0 2.0 0.00 0.00 0.00 56 1023.0
20260903092043 57 0 0.0 2.0 0.00 0.00 0.00 56 1023.1
20260903091603 57 0 0.0 1.0 0.00 0.00 0.00 55 1023.1
20260903091045 57 0 0.0 0.0 0.00 0.00 0.00 54 1023.1
20260903090546 58 0 0.0 0.0 0.00 0.00 0.00 53 1023.2
20260903090059 58 0 0.0 4.0 0.00 0.00 0.00 52 1023.1
20260903085544 58 0 0.0 4.0 0.00 0.00 0.00 51 1023.1
20260903085043 59 0 0.0 3.0 0.00 0.00 0.00 50 1022.9
20260903084558 59 0 0.0 7.0 0.00 0.00 0.00 50 1023.0
20260903084048 59 0 0.0 7.0 0.00 0.00 0.00 50 1022.8
20260903083548 59 0 0.0 3.0 0.00 0.00 0.00 49 1022.9
20260903083053 59 0 0.0 3.0 0.00 0.00 0.00 49 1022.9
20260903082545 59 286 0.0 0.0 0.00 0.00 0.00 49 1022.9
20260903082043 59 0 0.0 0.0 0.00 0.00 0.00 49 1022.8
20260903081602 59 0 0.0 0.0 0.00 0.00 0.00 49 1022.9
20260903081044 59 0 0.0 0.0 0.00 0.00 0.00 48 1022.8
20260903080546 59 0 0.0 0.0 0.00 0.00 0.00 48 1022.9
20260903075551 60 0 0.0 0.0 0.00 0.00 0.00 47 1022.9
20260903075046 60 0 0.0 0.0 0.00 0.00 0.00 47 1022.8
20260903074602 60 0 0.0 4.0 0.00 0.00 0.00 47 1022.7
20260903074046 60 0 0.0 4.0 0.00 0.00 0.00 47 1022.8
20260903073546 59 0 0.0 0.0 0.00 0.00 0.00 48 1022.7
20260903073112 59 0 0.0 0.0 0.00 0.00 0.00 50 1022.7
20260903072549 59 0 0.0 0.0 0.00 0.00 0.00 51 1022.8
20260903072046 59 0 0.0 0.0 0.00 0.00 0.00 53 1022.7
20260903071605 59 0 0.0 0.0 0.00 0.00 0.00 54 1022.9
20260903071046 59 0 0.0 0.0 0.00 0.00 0.00 55 1023.0
20260903070552 59 0 0.0 0.0 0.00 0.00 0.00 58 1023.1
20260903065547 59 0 0.0 0.0 0.00 0.00 0.00 58 1023.2
20260903065047 59 0 0.0 0.0 0.00 0.00 0.00 58 1023.3
20260903064607 59 0 0.0 0.0 0.00 0.00 0.00 58 1023.4
20260903064046 59 0 0.0 0.0 0.00 0.00 0.00 57 1023.4
20260903063546 59 0 0.0 0.0 0.00 0.00 0.00 57 1023.4
20260903063105 59 0 0.0 0.0 0.00 0.00 0.00 58 1023.5
20260903062551 59 0 0.0 0.0 0.00 0.00 0.00 57 1023.4
20260903062047 59 0 0.0 0.0 0.00 0.00 0.00 57 1023.4
20260903061612 59 0 0.0 0.0 0.00 0.00 0.00 56 1023.4
20260903061047 59 0 0.0 0.0 0.00 0.00 0.00 56 1023.3
20260903060547 59 0 0.0 0.0 0.00 0.00 0.00 55 1023.3
20260903060109 59 0 0.0 0.0 0.00 0.00 0.00 56 1023.2
20260903055547 59 0 0.0 0.0 0.00 0.00 0.00 57 1023.2
20260903055046 59 0 0.0 0.0 0.00 0.00 0.00 57 1023.2
20260903054607 59 0 0.0 0.0 0.00 0.00 0.00 57 1023.2
20260903054047 59 0 0.0 0.0 0.00 0.00 0.00 57 1022.9
20260903053547 59 0 0.0 0.0 0.00 0.00 0.00 58 1023.0
20260903053119 59 0 0.0 0.0 0.00 0.00 0.00 58 1022.9
20260903052547 58 0 0.0 0.0 0.00 0.00 0.00 58 1023.2
20260903052048 58 0 0.0 0.0 0.00 0.00 0.00 59 1023.2
20260903051559 58 0 0.0 0.0 0.00 0.00 0.00 59 1023.2
20260903051045 59 0 0.0 0.0 0.00 0.00 0.00 59 1023.2
20260903050546 59 0 0.0 0.0 0.00 0.00 0.00 58 1023.1
20260903050106 59 0 0.0 0.0 0.00 0.00 0.00 58 1023.5
20260903045549 59 0 0.0 0.0 0.00 0.00 0.00 58 1023.5
20260903045043 59 0 0.0 0.0 0.00 0.00 0.00 57 1023.5
20260903044605 59 0 0.0 0.0 0.00 0.00 0.00 58 1023.5
20260903044045 59 0 0.0 0.0 0.00 0.00 0.00 58 1023.5
20260903043546 59 0 0.0 0.0 0.00 0.00 0.00 58 1023.6
20260903043103 59 0 0.0 0.0 0.00 0.00 0.00 58 1023.7
20260903042547 59 0 0.0 0.0 0.00 0.00 0.00 59 1023.9
20260903042046 59 0 0.0 0.0 0.00 0.00 0.00 57 1024.0
20260903041600 59 0 0.0 0.0 0.00 0.00 0.00 57 1023.9
20260903041045 59 0 0.0 0.0 0.00 0.00 0.00 57 1024.0
20260903040545 59 0 0.0 0.0 0.00 0.00 0.00 56 1023.9
20260903040107 59 0 0.0 0.0 0.00 0.00 0.00 55 1023.9
20260903035545 60 0 0.0 0.0 0.00 0.00 0.00 55 1023.7
20260903035045 60 0 0.0 0.0 0.00 0.00 0.00 54 1023.7
20260903034551 60 0 0.0 0.0 0.00 0.00 0.00 54 1023.8
20260903034048 61 0 0.0 0.0 0.00 0.00 0.00 53 1023.7
20260903033544 61 0 0.0 0.0 0.00 0.00 0.00 52 1023.7
20260903033100 62 0 0.0 0.0 0.00 0.00 0.00 51 1023.7
20260903032545 62 0 0.0 0.0 0.00 0.00 0.00 50 1023.7
20260903032044 63 0 0.0 0.0 0.00 0.00 0.00 50 1023.7
20260903031604 63 0 0.0 0.0 0.00 0.00 0.00 49 1023.8
20260903031045 63 0 0.0 4.0 0.00 0.00 0.00 50 1023.9
20260903030545 63 0 0.0 4.0 0.00 0.00 0.00 50 1023.8
20260903030112 63 281 0.0 4.0 0.00 0.00 0.00 50 1023.4
20260903025546 63 0 0.0 4.0 0.00 0.00 0.00 50 1023.3
20260903025045 64 0 0.0 4.0 0.00 0.00 0.00 49 1023.6
20260903024550 64 0 0.0 6.0 0.00 0.00 0.00 49 1023.5
20260903024045 64 0 0.0 6.0 0.00 0.00 0.00 49 1023.4
20260903023544 64 0 0.0 4.0 0.00 0.00 0.00 48 1023.3
20260903023058 64 0 0.0 4.0 0.00 0.00 0.00 49 1023.4
20260903022545 64 0 0.0 4.0 0.00 0.00 0.00 48 1023.5
20260903022045 64 0 0.0 2.0 0.00 0.00 0.00 48 1023.4
20260903021557 64 0 0.0 4.0 0.00 0.00 0.00 48 1023.2
20260903021045 64 0 0.0 4.0 0.00 0.00 0.00 49 1023.1
20260903020546 65 0 0.0 4.0 0.00 0.00 0.00 49 1023.0
20260903020057 65 0 0.0 1.0 0.00 0.00 0.00 49 1023.1
20260903015547 65 0 0.0 5.0 0.00 0.00 0.00 49 1023.0
20260903015044 65 283 0.0 5.0 0.00 0.00 0.00 49 1022.9
20260903014611 66 0 0.0 3.0 0.00 0.00 0.00 48 1023.0
20260903014046 66 0 0.0 3.0 0.00 0.00 0.00 48 1023.1
20260903013548 66 0 0.0 7.0 0.00 0.00 0.00 48 1023.1
20260903013102 66 189 1.0 7.0 0.00 0.00 0.00 47 1023.0
20260903012545 67 0 0.0 8.0 0.00 0.00 0.00 47 1022.9
20260903012049 67 0 0.0 8.0 0.00 0.00 0.00 46 1023.0
20260903011618 67 0 0.0 8.0 0.00 0.00 0.00 46 1022.9
20260903011046 67 0 0.0 8.0 0.00 0.00 0.00 45 1022.8
20260903010545 67 225 1.0 8.0 0.00 0.00 0.00 45 1022.7
20260903010119 67 0 0.0 8.0 0.00 0.00 0.00 45 1022.8
20260903005545 67 0 0.0 1.0 0.00 0.00 0.00 47 1022.7
20260903005045 68 0 0.0 0.0 0.00 0.00 0.00 48 1022.5
20260903004601 68 0 0.0 1.0 0.00 0.00 0.00 48 1022.5
20260903004045 68 0 0.0 1.0 0.00 0.00 0.00 48 1022.7
20260903003545 68 0 0.0 8.0 0.00 0.00 0.00 49 1022.6
20260903003105 68 0 0.0 8.0 0.00 0.00 0.00 47 1022.7
20260903002545 68 0 0.0 7.0 0.00 0.00 0.00 47 1022.8
20260903002046 68 0 1.0 7.0 0.00 0.00 0.00 45 1022.9
20260903001559 69 0 1.0 7.0 0.00 0.00 0.00 45 1022.9
20260903001047 69 0 0.0 4.0 0.00 0.00 0.00 46 1022.8
20260903000545 69 252 0.0 6.0 0.00 0.00 0.00 45 1022.7
20260903000056 69 0 0.0 6.0 0.00 0.00 0.00 45 1022.7
20260902235544 70 0 0.0 5.0 0.00 0.00 0.00 45 1022.7
20260902235045 70 0 0.0 5.0 0.00 0.00 0.00 45 1022.7
20260902234556 69 0 0.0 6.0 0.00 0.00 0.00 45 1022.7
20260902234045 69 220 0.0 6.0 0.00 0.00 0.00 46 1022.8
20260902233545 69 0 0.0 6.0 0.00 0.00 0.00 45 1022.8
20260902233059 69 0 0.0 7.0 0.00 0.00 0.00 47 1022.9
20260902232544 69 0 0.0 7.0 0.00 0.00 0.00 46 1023.2
20260902232045 69 0 0.0 7.0 0.00 0.00 0.00 48 1023.5
20260902231606 69 268 0.0 7.0 0.00 0.00 0.00 48 1023.6
20260902231046 70 299 0.0 8.0 0.00 0.00 0.00 49 1023.5
20260902230545 70 0 0.0 8.0 0.00 0.00 0.00 39 1023.7
20260902230057 70 0 0.0 8.0 0.00 0.00 0.00 38 1023.9
20260902225545 71 0 0.0 7.0 0.00 0.00 0.00 38 1023.9
20260902225045 72 0 0.0 6.0 0.00 0.00 0.00 36 1024.1
20260902224604 72 0 1.0 12.0 0.00 0.00 0.00 34 1023.9
20260902224049 73 0 0.0 12.0 0.00 0.00 0.00 33 1023.6
20260902223545 74 237 1.0 7.0 0.00 0.00 0.00 33 1023.6
20260902223102 74 0 0.0 2.0 0.00 0.00 0.00 30 1023.2
20260902222545 75 0 0.0 0.0 0.00 0.00 0.00 30 1022.9